Regional Weather Roundup
Issued by NWS

Home | Current Version | Previous Version | Graphics & Text | Print | Product List | Glossary Off
Versions: 1 2 3 4 5 6 7 8 9 10 11 12 13 14 15 16 17 18 19 20 21 22 23 24 25 26 27 28 29 30 31 32 33 34 35 36 37 38 39 40 41 42 43 44 45 46 47 48 49 50

000
ASUS43 KTOP 212108
RWRKS

WEATHER ROUNDUP FOR KANSAS
NATIONAL WEATHER SERVICE GOODLAND KS
400 PM CDT TUE OCT 21 2014

NOTE:  "FAIR" INDICATES FEW OR NO CLOUDS BELOW 12,000 FEET WITH NO
SIGNIFICANT WEATHER AND/OR OBSTRUCTIONS TO VISIBILITY.

KSZ001>006-013>018-027>032-041>047-212200-
NORTHWEST KANSAS

CITY           SKY/WX    TMP DP  RH WIND       PRES   REMARKS
GOODLAND       SUNNY     78  50  37 S17G26    29.94F
HAYS           SUNNY     79  59  50 S15       29.98F
HILL CITY      SUNNY     79  57  46 SE15G26   29.96F
RUSSELL        SUNNY     78  59  51 SE18      29.97F
$$

KSZ061>065-074>080-084>089-212200-
SOUTHWEST KANSAS

CITY           SKY/WX    TMP DP  RH WIND       PRES   REMARKS
DODGE CITY     MOSUNNY   78  49  35 S15       30.00F
ELKHART          N/A     77  49  37 SW9         N/A
GARDEN CITY    MOSUNNY   79  51  37 S13       29.98F
GREAT BEND     SUNNY     81  57  44 S15       29.98F
LIBERAL        PTSUNNY   81  52  36 S15       30.02S
PRATT          SUNNY     81  52  36 S13       30.02F
$$

KSZ066>073-081>083-090>101-212200-
SOUTHEAST KANSAS

CITY           SKY/WX    TMP DP  RH WIND       PRES   REMARKS
CHANUTE        SUNNY     76  56  49 E6        30.06F
COFFEYVILLE    SUNNY     78  55  44 SE3       30.04F
HUTCHINSON     SUNNY     82  58  43 S15       30.01F
MEDICINE LODGE   N/A     82  56  40 S8G18     29.99F
NEWTON         SUNNY     79  55  44 S12       30.05S
PARSONS        SUNNY     77  56  48 VRB3      30.07S
WICHITA INTL   MOSUNNY   82  59  45 S14G20    30.01F
WICHITA JABRA  SUNNY     79  57  46 S12       30.02F
WICHITA MCCONL SUNNY     80  58  46 S13       30.02F
WINFIELD       SUNNY     80  61  52 S9        30.03F
$$

KSZ007>012-019>026-033>040-048>060-102>105-212200-
NORTHEAST KANSAS

CITY           SKY/WX    TMP DP  RH WIND       PRES   REMARKS
CONCORDIA      SUNNY     76  53  44 SE13      30.01F
EMPORIA        SUNNY     75  53  46 SE6       30.05F
LAWRENCE       SUNNY     75  44  33 SE8       30.06F
MANHATTAN      SUNNY     78  49  35 S6        30.02F
MARYSVILLE     SUNNY     73  45  35 S7        30.03F
OLATHE IND     SUNNY     73  44  35 S7        30.08F
OLATHE EXE     SUNNY     73  43  33 S5        30.07F
SALINA         MOSUNNY   79  54  41 SE15      30.01F
TOPEKA BILLARD SUNNY     76  43  30 CALM      30.05F
TOPEKA FORBES  SUNNY     76  41  28 SE6       30.06F
$$



USA.gov is the U.S. government's official web portal to all federal, state and local government web resources and services.